Location: Asheville, NC
(35.6000°N, 82.5500°W)
Time: 18:43:51
(UTC-05:00)

Vanguard 1 Rocket - Pass Details

Date: 24 January 2018
Orbit: 655 x 4222 km, 34.3° (Epoch: 16 February)

Event Time Altitude Azimuth Distance (km) Brightness Sun altitude
Exits shadow 03:51:09 14° 202° (SSW) 6,563 11.5 -45.5°
Maximum altitude 04:06:59 35° 150° (SSE) 4,002 10.6 -42.3°
Drops below altitude 10° 04:18:26 10° 90° (E) 4,424 11.6 -40.0°
Sets 04:21:32 0° 82° (E) 5,021 12.1 -39.3°
